Location: Malvern Link
(52.1333°N, 2.3000°W)
Time: 04:24:44
(UTC+00:00)

Envisat - Pass Details

Date: 21 January 2022
Orbit: 764 x 765 km, 98.2° (Epoch: 25 May)

Event Time Altitude Azimuth Distance (km) Brightness Sun altitude
Rises 04:01:51 0° 24° (NNE) 3,244 6.7 -36.7°
Reaches altitude 10° 04:04:39 10° 39° (NE) 2,313 6.0 -36.2°
Maximum altitude 04:08:39 23° 90° (E) 1,600 5.2 -35.6°
Drops below altitude 10° 04:12:37 10° 142° (SE) 2,299 5.7 -35.1°
Sets 04:15:22 0° 157° (SSE) 3,220 6.4 -34.6°
